Theta_e
324 325 324 325 338 339 340 337 338 338 339 339 338 337 339 338 337 337 336 335 336 336 333 331 334 334 332 330 329 329 328 328 327 328 328 328 329 329 330 330 330 329 329
323 324 324 324 336 336 336 336 334 337 336 335 335 338 338 338 337 337 337 336 336 336 336 334 334 336 335 333 332 332 330 329 329 329 330 330 330 331 331 330 330 329 328
322 323 324 324 333 336 337 336 335 335 334 334 335 335 335 337 337 336 334 334 335 335 333 334 333 333 334 334 333 333 332 331 331 331 330 331 331 330 330 330 330 327 326
320 322 324 323 331 335 334 333 335 336 333 332 333 332 333 333 333 334 334 333 332 333 333 332 331 331 331 331 332 332 332 332 332 332 332 332 331 331 329 328 327 326 325
319 321 323 323 325 332 332 330 331 336 335 332 330 329 328 328 328 328 327 328 327 326 325 327 328 327 325 325 326 329 330 331 333 332 332 332 331 330 330 328 328 326 325
319 321 323 323 323 325 330 330 329 330 331 328 327 326 327 327 325 325 325 325 325 326 324 324 326 327 324 323 323 324 327 328 331 333 332 331 330 328 329 328 327 326 325
319 321 323 322 322 324 321 325 327 330 326 326 325 322 322 323 323 324 323 323 325 324 324 324 323 322 319 320 320 321 327 331 332 332 332 332 332 329 327 325 325 324 322
319 322 322 321 321 322 319 320 320 320 320 322 323 323 322 323 322 321 323 322 322 320 320 319 317 317 320 319 317 325 331 332 330 331 331 329 329 327 325 326 324 323 323
319 321 321 322 321 321 321 319 318 318 316 317 318 323 326 325 324 324 325 326 325 324 322 325 323 318 315 315 314 316 320 326 326 327 327 325 326 325 324 327 324 323 321
317 318 319 320 320 320 319 317 317 318 318 316 316 317 318 320 321 320 320 320 320 317 315 313 312 312 311 311 312 313 315 319 324 326 322 324 320 324 325 325 323 321 320
315 315 317 318 319 318 318 316 316 317 318 318 318 317 315 316 318 318 316 314 313 312 312 311 311 311 311 311 311 312 312 315 317 322 325 318 323 322 322 321 322 320 319
314 314 313 315 317 317 317 316 315 316 317 318 319 319 317 314 313 312 312 312 311 311 311 312 312 312 312 312 312 313 317 320 320 320 320 320 320 321 321 320 320 319 313
314 314 313 314 315 316 315 315 314 315 316 317 319 318 314 312 312 312 312 312 312 312 312 312 312 312 312 312 312 313 315 317 318 318 320 319 318 319 318 317 317 309 309
314 314 314 314 314 313 313 313 313 312 312 312 313 312 312 312 312 312 312 311 311 311 310 309 309 309 309 310 310 311 313 315 315 316 316 316 315 315 315 314 308 308 308
314 314 313 313 313 313 313 312 312 312 312 312 312 312 312 312 311 311 310 310 310 310 309 309 308 308 308 308 308 309 310 311 313 313 313 313 313 313 309 308 308 307 307
314 314 314 313 313 313 312 312 312 312 312 312 312 311 311 310 310 310 310 310 310 309 309 308 307 307 307 307 307 307 308 308 308 309 309 308 308 307 307 307 306 306 305
314 314 314 313 312 312 312 312 312 312 312 311 311 311 310 310 310 310 309 309 309 308 307 307 307 306 306 307 307 307 306 307 307 307 307 306 306 306 305 305 305 304 304
314 314 314 313 313 312 312 312 312 312 312 311 311 310 310 310 309 309 309 308 308 307 307 306 306 306 305 305 306 306 306 306 306 305 305 305 305 304 304 303 302 300 297
313 314 314 314 313 313 312 312 312 312 312 312 311 310 310 310 309 309 308 308 307 306 306 305 304 303 303 304 304 304 302 302 303 303 303 303 302 301 301 296 291 290 290
313 314 314 314 314 313 313 312 312 312 312 311 311 310 310 309 309 308 307 306 306 305 305 304 302 301 301 301 300 301 300 301 301 301 301 300 299 294 290 289 289 289 289
312 314 314 314 314 313 313 312 312 312 311 311 310 309 309 308 308 307 306 305 304 304 303 302 301 300 299 299 298 297 299 299 299 298 297 292 289 289 289 288 288 289 288
308 311 313 313 313 313 312 312 312 311 311 310 309 308 308 307 307 306 305 304 303 303 302 301 300 299 298 297 297 297 296 296 291 289 289 288 289 288 287 287 288 288 287
308 309 309 309 309 309 309 309 310 309 309 309 308 307 306 306 305 304 303 303 302 302 301 300 299 298 297 296 297 294 289 288 288 288 288 288 288 287 287 287 287 287 287
309 308 308 308 309 309 309 309 309 309 309 308 307 306 305 305 304 303 303 302 301 301 301 300 299 297 297 296 292 289 288 287 287 287 287 287 287 287 287 287 287 287 287
308 308 308 308 308 307 307 307 307 308 307 306 305 305 304 303 303 302 302 301 301 300 299 298 297 296 297 296 291 288 287 287 286 286 286 287 287 287 287 287 287 287 287
306 306 307 307 307 307 307 307 307 306 305 304 304 304 304 303 302 302 301 301 300 300 299 297 296 295 295 293 288 287 287 287 287 287 287 287 287 287 287 287 287 288 288
Wind_Speed
17 21 18 15 22 24 22 20 20 20 23 23 31 28 27 24 24 21 22 18 16 14 14 14 12 12 13 12 10 11 13 12 11 13 14 13 12 11 11 10 9 6 12
23 18 22 18 22 24 25 22 21 22 21 20 20 25 28 27 25 25 23 22 19 16 13 13 14 14 14 13 12 14 14 14 14 13 10 9 12 9 9 7 9 13 16
18 21 24 22 22 22 26 24 22 23 22 19 19 17 20 24 25 25 22 20 18 16 17 16 15 16 17 17 15 17 19 17 15 16 14 6 6 4 7 13 14 15 16
20 22 28 25 25 23 23 24 21 19 18 21 19 15 13 13 16 16 16 15 14 11 15 17 16 16 16 18 20 22 23 21 20 19 21 20 19 10 7 12 15 13 17
15 20 26 26 25 28 27 25 27 25 22 19 20 15 13 7 9 11 11 10 9 7 8 9 10 13 14 15 18 22 24 27 23 22 22 22 20 22 24 17 16 15 16
24 18 23 26 22 23 26 29 29 26 24 20 18 16 17 14 14 12 14 13 11 9 9 11 15 14 16 17 18 27 32 28 25 24 23 24 23 22 19 19 19 18 18
26 21 25 25 22 22 21 22 23 23 22 19 16 15 9 14 17 17 21 13 15 16 15 12 18 22 22 19 23 29 32 26 25 25 25 26 26 25 20 18 13 13 15
24 23 28 25 20 20 19 19 21 20 21 23 24 22 19 28 24 14 24 13 13 19 10 10 14 28 32 28 30 31 28 26 25 25 26 27 27 23 22 20 16 15 14
25 25 21 23 21 22 24 22 21 18 17 22 23 22 24 27 24 22 25 22 25 24 28 29 27 28 29 29 29 29 29 26 26 26 25 25 25 23 23 20 19 18 17
9 14 24 18 21 21 19 23 21 19 18 14 14 14 15 20 22 23 23 22 22 21 21 22 24 24 23 22 22 23 24 24 24 24 24 23 27 23 20 21 21 19 19
10 11 16 13 16 20 20 24 24 22 21 18 12 9 12 16 18 18 18 18 18 19 19 17 17 17 16 16 16 17 19 23 22 21 22 24 24 24 20 22 21 20 22
8 13 11 15 18 20 19 19 24 25 25 21 22 21 16 17 17 17 16 16 16 17 17 18 19 19 18 19 18 17 15 14 17 20 22 24 27 22 20 22 21 23 21
11 14 14 19 20 19 19 21 21 20 21 22 23 24 23 20 18 16 14 15 16 16 17 19 19 20 19 19 19 18 17 16 16 18 19 20 23 20 20 24 20 18 16
10 12 14 15 15 14 15 17 18 17 17 16 16 17 17 15 14 13 12 13 13 14 16 17 17 17 17 19 19 20 20 19 19 19 20 20 22 21 22 20 17 15 15
10 12 13 14 15 16 15 15 15 16 16 15 15 15 14 12 11 10 10 10 11 12 14 15 16 17 17 16 17 19 20 20 20 20 21 21 21 20 19 16 15 14 13
10 12 14 15 17 17 17 16 14 14 14 14 13 12 11 10 10 9 9 9 10 12 14 15 16 17 17 17 16 18 18 18 19 18 18 20 19 18 17 14 13 12 13
11 13 15 15 15 15 16 14 13 12 13 13 12 11 10 10 10 10 11 11 11 12 13 15 17 18 18 17 18 18 18 18 17 17 17 15 13 13 12 13 14 14 15
10 13 15 16 14 13 13 12 12 11 11 11 11 11 11 11 12 12 12 13 14 14 14 15 17 18 17 17 17 16 17 17 16 15 14 13 13 12 13 12 13 13 12
2 12 14 15 16 15 13 12 11 11 12 13 12 12 11 12 12 13 14 14 15 16 17 16 14 16 15 15 13 12 13 14 14 13 13 13 13 13 13 12 12 12 12
5 10 11 13 13 13 13 13 13 12 12 13 13 13 13 13 14 15 15 15 16 17 17 15 12 13 14 12 10 11 13 14 14 15 13 13 12 12 12 12 13 11 11
9 12 14 13 12 12 14 15 14 13 13 12 14 15 14 15 15 16 16 17 17 17 16 14 12 11 13 12 11 12 12 12 13 13 13 14 11 11 11 12 12 11 10
3 9 13 15 16 16 15 14 14 15 15 14 15 15 15 15 16 16 17 18 17 16 15 15 14 12 13 12 13 13 13 13 13 13 13 12 10 11 11 11 11 10 9
6 4 2 4 6 8 10 12 13 13 13 14 14 15 15 16 17 17 16 16 16 16 15 15 15 14 14 14 14 14 14 14 15 14 13 11 11 10 10 10 10 11 11
6 5 3 2 1 2 4 7 7 8 9 11 12 14 15 17 17 16 16 16 16 16 16 17 17 17 16 15 15 14 15 15 15 14 13 12 11 11 11 11 11 11 12
5 4 3 3 3 2 3 5 6 7 8 11 13 14 15 17 16 16 16 16 17 16 16 17 17 18 17 13 14 13 13 12 12 12 12 12 12 12 11 12 12 13 13
4 4 4 3 5 7 8 9 9 10 12 13 14 15 14 16 16 16 17 17 18 18 18 16 17 17 16 14 14 13 13 13 13 13 12 13 13 13 13 13 13 13 13
Wind_Direction
210 202 203 208 194 192 191 202 204 199 198 199 209 212 210 207 204 212 211 218 218 223 241 220 214 226 237 241 236 238 237 241 241 253 266 274 275 281 286 283 283 259 263
207 210 192 204 199 202 202 201 205 205 207 208 208 212 218 213 216 213 218 213 208 214 226 237 215 223 243 243 236 245 250 248 252 257 265 279 285 282 267 268 245 237 255
202 208 187 193 197 203 201 204 202 203 212 211 213 207 211 215 225 224 227 227 227 222 226 235 235 233 235 251 258 252 256 261 258 258 250 247 247 217 229 229 240 262 267
208 215 188 187 190 204 205 207 195 206 209 206 213 216 220 227 235 240 231 229 228 232 240 241 250 257 263 269 274 272 266 264 261 254 259 257 256 243 234 239 255 270 283
222 204 198 188 194 202 200 208 199 199 211 204 200 193 192 214 233 236 248 250 245 249 276 261 255 257 268 286 299 287 279 271 265 259 262 262 255 252 254 261 259 261 274
224 210 204 192 201 205 203 198 202 206 213 213 207 213 220 209 229 230 255 246 251 262 267 282 278 281 275 274 279 275 270 266 264 262 257 260 258 261 259 259 263 262 264
207 206 185 176 188 196 199 197 192 189 193 204 197 200 196 223 247 252 246 245 262 252 244 260 290 282 276 267 262 268 269 268 265 263 259 256 252 254 261 259 259 258 260
198 199 193 194 196 200 196 200 201 198 207 215 225 235 245 236 243 254 256 249 258 246 249 248 263 271 272 264 262 258 258 258 258 258 254 254 254 255 253 243 259 250 239
194 197 200 198 211 211 207 204 200 202 206 214 216 214 214 218 222 229 241 239 237 241 247 247 251 257 261 264 265 263 261 255 257 258 256 262 259 255 246 242 260 254 258
189 179 199 202 207 206 207 205 202 208 209 203 202 211 232 232 230 237 242 243 245 249 252 257 261 264 267 267 265 266 265 257 253 252 256 256 261 252 249 260 257 258 266
191 208 199 189 195 194 202 207 209 208 207 213 215 242 276 249 249 245 246 248 254 260 268 269 266 266 265 266 267 270 264 253 250 249 249 257 257 248 252 256 262 265 270
167 185 195 193 184 191 204 207 207 211 214 211 229 233 265 263 253 248 253 259 263 267 271 271 272 271 270 271 271 270 261 254 251 247 246 250 249 259 248 256 265 273 266
188 182 185 191 202 206 208 211 212 212 212 217 223 226 222 221 234 245 252 259 264 267 271 271 272 274 275 271 268 265 258 253 245 245 242 250 251 244 252 272 272 261 251
166 168 177 187 200 193 190 199 203 203 203 204 206 207 214 223 234 240 246 251 259 268 272 275 274 271 268 265 262 259 256 252 245 245 252 256 255 257 260 262 257 249 242
162 170 172 175 177 175 185 190 194 192 196 201 205 211 218 224 233 243 252 263 273 280 281 281 278 276 272 266 262 257 255 253 249 248 248 250 251 252 252 251 242 233 227
174 172 170 174 179 186 182 192 194 193 196 203 211 213 217 225 234 244 256 270 279 284 284 284 285 280 275 268 261 257 253 249 247 248 247 246 251 250 246 236 229 226 221
194 186 183 184 189 188 190 196 196 200 205 210 214 218 226 235 244 252 261 271 279 282 288 292 290 283 275 267 259 258 257 253 251 245 243 242 236 230 224 223 217 221 226
204 199 192 185 193 197 199 202 207 207 214 219 223 227 234 243 252 261 269 278 281 283 284 291 296 290 273 264 262 254 248 246 245 238 230 223 221 214 215 216 218 228 227
226 216 205 199 196 202 206 210 216 215 219 227 233 240 249 258 263 265 272 278 280 280 281 280 292 300 286 263 256 246 238 238 232 227 219 215 211 211 213 218 232 219 225
184 183 198 195 207 210 214 218 224 231 233 238 244 247 255 264 270 276 281 284 285 285 288 285 289 298 284 259 243 226 220 220 222 221 220 221 213 218 224 221 229 222 220
191 171 169 182 202 221 226 224 231 240 247 247 250 253 259 267 272 278 283 284 285 285 283 279 278 282 279 245 229 226 217 215 219 219 221 229 219 225 228 228 226 222 215
131 187 196 202 205 215 232 235 237 243 251 254 253 256 262 267 275 279 282 283 281 280 277 274 271 267 266 254 228 224 225 224 225 228 228 229 233 229 229 228 221 224 213
69 87 141 195 212 225 230 236 241 247 253 254 254 259 265 273 276 278 278 275 274 276 271 267 266 260 257 250 237 229 231 237 238 237 237 237 236 232 232 227 219 222 217
59 63 58 29 359 280 250 249 253 252 254 254 258 265 273 279 281 279 276 272 274 275 272 268 263 257 253 243 237 236 238 241 244 240 238 237 235 231 226 223 220 218 218
34 28 12 357 335 312 266 270 275 268 260 259 265 273 281 286 283 277 272 275 276 275 273 269 262 253 256 241 243 242 244 242 240 238 234 233 233 232 228 225 225 223 225
28 29 18 350 308 296 288 279 275 272 266 263 267 277 284 286 286 280 275 276 277 277 276 265 252 249 251 233 239 241 243 243 242 243 240 238 238 236 234 232 233 231 234